STARLINK-5742, 55583

Orbit data source: Space-Track

STARLINK-5742, 55583 is a payload satellite owned by SpaceX/Seattle (US) in LEO that was launched on Sun, 12 Feb 2023 UTC via an FALCON 9 launch vehicle from the Air Force Eastern Test Range (AFETR). Payload-class satellites include a variety of spacecraft equipped with specific instruments for various scientific and technological missions. These include communications satellites like Starlink; space stations such as the ISS; scientific satellites like the Hubble; Earth observation satellites from companies like Planet Labs, Umbra, and HawkEye 360; GPS; miniature CubeSats for education and research; and military/defense satellites.

Loading next visibility...
Identifier
55583, 2023-020Q
Orbit
LEO
Country
Flag of USUS
Related business
Manufacturer
SpaceX/Seattle
Mission
Operational Commercial Communications
Bus & Motor
STARLINK, Unknown motor
Mass
305 kg wet, ~290 kg dry
Launch date (UTC)
2023-02-12 (3 years ago)
Launch vehicle
FALCON 9
Launch site
Air Force Eastern Test Range (AFETR)
Object type
Payload
Rocket body
Debris
Shape & HBR
Box + 1 Pan, 10.1 m
Radar Cross Section
13.562 m², Large (>1 m²)

Expand to show TLE details & history
Last TLE update: 12 hours ago

TLE from 12 hours ago
0 STARLINK-5742
1 55583U 23020Q   25345.10509680  .00000074  00000-0  20576-4 0  9996
2 55583  43.0029 126.0012 0001036 271.8257  88.2466 15.02531912155598
Epoch: 2025-12-11T02:31Z
TLE epoch observation values (Epoch: 2025-12-11T02:31:20.363Z)
Latitude
-0.00007°
Longitude
8.10043°
Altitude
558.848 km
Speed
7.584 km/s
True Right ascension
08h 24m 00s
True Declination
0° 00' 00"
Sunlit
Object was in full shadow at epoch
Visualization orbit readout
Latitude
Unknown
Longitude
Unknown
Altitude
Unknown
Speed
Unknown
Apparent Right ascension
Unknown
Apparent Declination
Unknown
Sunlit
N/A
Visualization observer readout
Local Sidereal Time
13:06:31
Azimuth
Unknown
Elevation
Unknown
Doppler factor
Unknown
Orbital elements
Apogee altitude
561.734 km
Perigee altitude
560.297 km
Semi-major axis
6,939.153 km
Eccentricity
0.0001
Inclination
43.0029°
RAAN
126.0012°
Arg. of periapsis
271.8257°
True anomaly
88.25847°
Mean anomaly
88.2466°
Eccentric anomaly
88.25253°
Mean motion
3.75477 °/min
Orbital period
95.88 mins
BSTAR
0.000020576
Loading maneuver chart data...
Computing Atmospheric mass density...
Loading historical data...
Loading historical data...
Loading historical data...
Loading historical data...
Loading historical data...
Loading historical data...
Loading historical data...

Documentation

Showing up to 5 results
|